Location: Nairn
(57.5833°N, 3.8667°W)
Time: 03:20:17
(UTC+00:00)

Okean 2 Rocket - Pass Details

Date: 07 August 2020
Orbit: 616 x 642 km, 82.5° (Epoch: 27 September)

Event Time Altitude Azimuth Distance (km) Brightness Sun altitude
Exits shadow 02:19:03 17° 223° (SW) 1,592 4.6 -12.2°
Maximum altitude 02:22:12 45° 291° (WNW) 873 3.7 -12.0°
Drops below altitude 10° 02:26:33 10° 4° (N) 2,042 6.8 -11.7°
Sets 02:28:54 0° 11° (N) 2,959 8.0 -11.5°
